EDT,Max TemperatureF,Mean TemperatureF,Min TemperatureF,Max Dew PointF,MeanDew PointF,Min DewpointF,Max Humidity, Mean Humidity, Min Humidity, Max Sea Level PressureIn, Mean Sea Level PressureIn, Min Sea Level PressureIn, Max VisibilityMiles, Mean VisibilityMiles, Min VisibilityMiles, Max Wind SpeedMPH, Mean Wind SpeedMPH, Max Gust SpeedMPH,PrecipitationIn, CloudCover, Events, WindDirDegrees
2013-6-1,86,77,68,71,68,66,93,74,55,30.17,30.13,30.09,10,10,10,17,8,23,0.00,2,,160
2013-6-2,87,79,70,74,70,67,97,79,61,30.10,30.02,29.96,10,10,7,21,10,24,0.04,4,Rain,179
2013-6-3,83,77,70,74,71,66,88,81,74,29.98,29.93,29.88,10,8,0,17,7,23,2.30,5,Fog-Rain-Thunderstorm,197
2013-6-4,88,80,71,75,72,69,100,82,63,30.05,29.98,29.92,10,8,0,16,5,20,T,6,Fog-Rain-Thunderstorm,74
2013-6-5,84,78,72,74,71,68,94,82,69,30.05,30.01,29.97,10,8,1,26,7,32,1.69,7,Rain-Thunderstorm,89
2013-6-6,81,77,72,73,71,69,93,84,74,29.98,29.88,29.71,10,9,3,20,8,25,1.71,7,Rain-Thunderstorm,139
2013-6-7,87,81,74,73,71,68,88,72,55,29.88,29.69,29.52,10,9,4,30,16,39,0.11,6,Rain,206
2013-6-8,90,82,73,73,71,69,94,73,52,30.11,29.99,29.88,10,10,8,16,9,21,0.02,5,Rain,219
2013-6-9,88,82,76,74,72,70,88,74,59,30.14,30.11,30.08,10,10,10,18,9,23,0.00,7,,171
2013-6-10,88,79,70,74,72,66,93,78,63,30.12,30.07,30.00,10,9,2,25,12,33,0.54,6,Rain-Thunderstorm,203
2013-6-11,90,82,73,74,72,70,93,75,56,30.05,30.00,29.95,10,9,1,17,8,23,1.55,6,Rain-Thunderstorm,222
2013-6-12,95,85,75,77,72,70,94,70,46,30.01,29.97,29.93,10,10,10,13,6,15,0.00,2,,252
2013-6-13,96,88,80,77,74,69,91,69,46,29.93,29.84,29.75,10,10,9,21,10,25,0.00,2,,236
2013-6-14,87,79,70,72,62,56,82,59,36,30.01,29.86,29.75,10,10,10,16,8,23,0.00,2,,7
2013-6-15,85,76,67,65,60,54,84,62,39,30.14,30.10,30.02,10,10,10,16,6,23,0.00,2,,105
2013-6-16,87,76,65,66,62,59,87,65,43,30.19,30.13,30.08,10,10,10,15,4,22,0.00,2,,176
2013-6-17,88,80,71,74,70,66,88,71,53,30.10,30.05,29.99,10,10,7,15,6,18,0.17,4,Rain,201
2013-6-18,91,82,72,75,71,66,94,75,56,30.01,29.94,29.88,10,10,4,21,8,31,0.75,6,Rain-Thunderstorm,225
2013-6-19,89,82,74,76,72,70,93,76,59,30.06,29.98,29.91,10,9,2,16,6,20,0.88,7,Rain-Thunderstorm,57
2013-6-20,84,78,71,72,68,61,93,72,51,30.17,30.12,30.04,10,10,10,17,9,24,T,5,,48
2013-6-21,88,79,69,70,67,63,84,67,50,30.18,30.15,30.12,10,10,10,17,9,22,0.00,4,,34
2013-6-22,86,79,71,72,70,69,93,77,61,30.18,30.14,30.11,10,10,10,12,5,14,T,6,,357
2013-6-23,89,82,74,74,72,70,87,73,59,30.20,30.17,30.14,10,10,9,20,6,22,T,5,Rain-Thunderstorm,132
2013-6-24,88,81,74,75,73,71,94,79,63,30.24,30.19,30.15,10,10,10,17,5,22,0.38,5,Rain-Thunderstorm,213
2013-6-25,89,82,74,74,73,69,94,75,55,30.18,30.13,30.07,10,10,10,16,6,20,0.01,5,Rain-Thunderstorm,208
2013-6-26,90,82,73,74,71,68,94,75,56,30.10,30.04,29.97,10,9,3,24,7,31,0.62,5,Rain-Thunderstorm,214
2013-6-27,92,84,75,77,73,69,94,75,56,30.00,29.90,29.82,10,10,6,20,9,29,0.04,5,Rain-Thunderstorm,221
2013-6-28,92,85,78,78,74,69,85,73,60,29.84,29.76,29.68,10,10,10,23,12,26,0.09,4,Rain-Thunderstorm,226
2013-6-29,89,81,73,73,71,68,85,72,59,29.78,29.74,29.71,10,10,10,18,10,22,0.09,5,Rain,221
2013-6-30,86,79,72,75,73,68,94,82,70,29.87,29.81,29.75,10,8,1,23,7,29,2.33,7,Rain-Thunderstorm,209